Temp
-15 -15 -16 -15 -16 -16 -15 -15 -15 -15 -16 -16 -16 -16 -16 -17 -16 -16 -16 -16 -16 -16 -16 -16 -16 -17 -17 -17 -17 -18 -18 -18 -18 -18 -18 -19 -20 -20 -21 -21 -22 -22 -22
-15 -15 -15 -14 -15 -15 -15 -15 -14 -13 -16 -16 -16 -17 -17 -17 -17 -16 -16 -16 -16 -17 -17 -17 -17 -17 -17 -17 -18 -18 -18 -18 -18 -18 -19 -20 -20 -21 -21 -21 -22 -23 -23
-15 -15 -14 -15 -14 -15 -15 -15 -15 -15 -16 -17 -16 -16 -17 -17 -17 -17 -17 -17 -17 -17 -17 -17 -17 -17 -17 -17 -18 -18 -18 -18 -18 -19 -19 -20 -20 -21 -21 -22 -23 -23 -23
-15 -14 -15 -15 -16 -16 -15 -16 -16 -16 -16 -16 -17 -17 -17 -17 -17 -17 -17 -17 -17 -17 -17 -17 -17 -17 -18 -18 -18 -18 -18 -19 -19 -19 -20 -20 -21 -21 -22 -22 -22 -23 -23
-15 -15 -16 -16 -16 -16 -16 -16 -16 -16 -17 -17 -17 -17 -17 -17 -17 -17 -17 -17 -17 -17 -17 -17 -18 -18 -18 -18 -18 -19 -19 -19 -19 -20 -20 -21 -21 -22 -22 -23 -23 -24 -24
-15 -16 -16 -16 -16 -16 -16 -17 -17 -17 -17 -17 -18 -18 -17 -17 -17 -17 -17 -17 -17 -17 -17 -18 -18 -18 -18 -19 -19 -19 -19 -19 -20 -20 -21 -21 -21 -22 -23 -23 -24 -25 -25
-15 -16 -16 -16 -16 -16 -16 -16 -17 -17 -17 -17 -17 -17 -17 -17 -17 -17 -17 -17 -17 -18 -18 -18 -18 -18 -19 -19 -19 -19 -20 -20 -21 -21 -21 -22 -22 -23 -23 -24 -24 -25 -26
-16 -16 -16 -16 -16 -17 -17 -17 -17 -17 -17 -17 -17 -17 -18 -18 -18 -17 -17 -18 -18 -18 -18 -19 -19 -19 -19 -19 -19 -20 -21 -21 -21 -22 -22 -22 -23 -24 -25 -25 -25 -26 -27
-15 -16 -16 -16 -16 -16 -16 -17 -17 -17 -17 -17 -18 -18 -18 -18 -18 -18 -18 -18 -18 -19 -19 -19 -19 -19 -20 -20 -20 -20 -21 -21 -22 -22 -23 -23 -24 -25 -26 -26 -26 -27 -29
-15 -15 -16 -16 -16 -16 -16 -16 -16 -16 -17 -17 -17 -17 -17 -18 -18 -18 -18 -19 -19 -19 -19 -20 -20 -20 -20 -20 -21 -21 -21 -21 -22 -22 -23 -24 -24 -25 -26 -26 -27 -29 -30
-15 -15 -16 -16 -16 -16 -16 -16 -17 -17 -17 -17 -17 -17 -18 -18 -18 -18 -18 -19 -19 -20 -20 -20 -20 -20 -20 -21 -21 -21 -22 -22 -22 -22 -23 -23 -24 -25 -26 -27 -29 -31 -32
-15 -15 -15 -16 -16 -16 -17 -17 -17 -17 -17 -17 -17 -18 -18 -18 -18 -18 -19 -20 -20 -20 -20 -20 -20 -20 -21 -22 -22 -22 -22 -22 -22 -22 -23 -24 -24 -25 -27 -29 -30 -32 -32
-16 -16 -16 -16 -16 -16 -17 -17 -17 -17 -17 -17 -18 -18 -18 -18 -19 -19 -20 -20 -20 -20 -20 -20 -20 -21 -22 -23 -23 -23 -22 -23 -23 -23 -24 -25 -25 -27 -29 -30 -31 -33 -33
-16 -16 -16 -16 -17 -17 -17 -17 -17 -17 -17 -18 -18 -18 -18 -19 -19 -19 -20 -20 -20 -20 -20 -20 -21 -22 -22 -23 -23 -23 -23 -23 -24 -25 -25 -26 -27 -29 -31 -32 -32 -33 -34
-17 -17 -17 -17 -17 -17 -18 -17 -17 -18 -18 -18 -18 -19 -19 -19 -20 -20 -20 -21 -21 -21 -21 -21 -21 -22 -22 -23 -23 -23 -24 -25 -26 -26 -27 -28 -30 -31 -32 -32 -33 -34 -35
-17 -17 -17 -17 -18 -18 -18 -18 -18 -18 -19 -19 -19 -19 -20 -20 -20 -20 -20 -20 -21 -21 -21 -22 -22 -23 -23 -23 -24 -24 -25 -26 -27 -28 -29 -30 -31 -32 -32 -33 -34 -35 -36
-18 -18 -18 -18 -18 -18 -18 -18 -18 -18 -18 -19 -19 -20 -20 -20 -20 -20 -21 -21 -21 -22 -22 -22 -23 -24 -24 -24 -25 -26 -26 -27 -29 -30 -31 -31 -32 -33 -33 -34 -35 -36 -37
-18 -18 -18 -18 -18 -18 -18 -19 -19 -19 -20 -20 -20 -20 -21 -21 -21 -21 -21 -22 -22 -23 -23 -23 -24 -24 -25 -26 -26 -27 -28 -30 -31 -31 -32 -32 -33 -34 -35 -36 -36 -37 -38
-18 -19 -19 -19 -19 -19 -20 -20 -20 -20 -20 -20 -20 -21 -21 -21 -22 -22 -22 -23 -23 -24 -24 -25 -25 -26 -26 -27 -28 -29 -31 -31 -32 -32 -32 -33 -34 -35 -36 -37 -37 -38 -39
-18 -18 -19 -19 -19 -19 -20 -20 -20 -20 -20 -20 -21 -21 -22 -22 -23 -23 -23 -24 -24 -25 -25 -26 -26 -27 -27 -28 -30 -31 -32 -32 -32 -32 -33 -34 -35 -36 -37 -37 -38 -38 -39
-19 -19 -19 -19 -20 -20 -20 -20 -20 -20 -21 -21 -21 -22 -22 -23 -23 -24 -24 -25 -25 -26 -26 -27 -27 -28 -29 -31 -31 -32 -32 -33 -33 -33 -34 -35 -36 -37 -37 -38 -38 -39 -39
-20 -19 -19 -20 -20 -20 -20 -20 -21 -21 -22 -22 -23 -23 -23 -24 -24 -25 -25 -26 -26 -26 -27 -28 -29 -30 -31 -32 -32 -33 -33 -33 -34 -34 -35 -36 -37 -38 -38 -38 -38 -40 -39
-20 -20 -20 -20 -20 -20 -21 -21 -22 -22 -23 -23 -23 -24 -25 -25 -25 -26 -26 -26 -27 -28 -29 -30 -31 -32 -32 -33 -33 -33 -33 -34 -34 -35 -36 -38 -38 -38 -38 -38 -38 -39 -40
-20 -20 -20 -21 -21 -22 -22 -22 -23 -23 -24 -24 -25 -25 -25 -26 -26 -26 -27 -28 -29 -30 -31 -31 -32 -33 -33 -33 -34 -34 -34 -35 -36 -37 -38 -38 -39 -38 -39 -39 -39 -40 -40
-21 -21 -22 -22 -22 -23 -23 -24 -24 -24 -25 -25 -25 -25 -26 -27 -27 -28 -29 -30 -31 -31 -32 -33 -33 -33 -34 -34 -35 -35 -36 -37 -37 -38 -39 -39 -39 -39 -39 -39 -39 -40 -41
-22 -23 -23 -23 -23 -24 -24 -24 -25 -25 -25 -26 -26 -27 -28 -28 -29 -29 -30 -31 -32 -32 -33 -33 -34 -34 -35 -35 -36 -37 -38 -38 -39 -39 -39 -39 -39 -39 -38 -38 -39 -40 -41
Height
5725 5725 5723 5723 5722 5723 5722 5721 5723 5720 5720 5722 5722 5723 5722 5721 5719 5717 5715 5713 5710 5708 5704 5701 5698 5694 5690 5684 5679 5673 5667 5661 5655 5650 5642 5631 5621 5613 5604 5595 5588 5581 5573
5718 5719 5715 5713 5714 5713 5715 5713 5709 5690 5710 5714 5715 5714 5714 5713 5711 5708 5706 5704 5700 5697 5694 5690 5687 5683 5677 5671 5665 5659 5652 5646 5641 5635 5627 5617 5607 5596 5589 5580 5571 5560 5551
5711 5709 5706 5706 5705 5708 5704 5706 5706 5707 5709 5708 5707 5706 5705 5704 5701 5698 5695 5692 5689 5686 5682 5679 5675 5670 5664 5657 5650 5645 5637 5630 5624 5618 5612 5604 5595 5582 5571 5561 5553 5541 5531
5703 5700 5697 5699 5700 5702 5701 5699 5698 5702 5703 5700 5698 5697 5695 5692 5690 5687 5684 5682 5679 5676 5672 5667 5662 5656 5648 5642 5635 5628 5621 5615 5608 5601 5595 5587 5578 5567 5554 5544 5537 5524 5515
5695 5694 5695 5693 5692 5693 5691 5691 5691 5691 5689 5690 5688 5687 5685 5683 5680 5677 5675 5672 5668 5663 5658 5653 5648 5641 5635 5628 5621 5614 5606 5599 5591 5583 5577 5570 5561 5550 5537 5526 5512 5499 5492
5687 5685 5686 5686 5687 5685 5684 5684 5685 5684 5681 5680 5677 5676 5674 5671 5669 5667 5663 5659 5655 5650 5645 5639 5633 5627 5620 5612 5605 5598 5591 5582 5574 5566 5559 5551 5543 5530 5520 5508 5494 5478 5467
5681 5680 5679 5680 5679 5677 5676 5677 5675 5672 5670 5670 5669 5666 5664 5661 5658 5654 5650 5645 5640 5635 5630 5623 5618 5611 5604 5598 5590 5582 5573 5564 5557 5550 5541 5529 5520 5507 5496 5487 5472 5458 5444
5672 5672 5672 5671 5669 5668 5668 5666 5665 5665 5664 5661 5658 5655 5651 5648 5644 5640 5636 5631 5626 5621 5615 5609 5603 5597 5591 5584 5576 5567 5558 5547 5537 5527 5518 5509 5494 5483 5466 5455 5443 5428 5415
5666 5664 5662 5661 5660 5659 5658 5657 5655 5654 5651 5649 5645 5642 5639 5636 5633 5628 5623 5618 5613 5607 5601 5595 5588 5581 5574 5568 5561 5552 5543 5533 5523 5512 5500 5488 5476 5461 5443 5429 5419 5402 5393
5658 5655 5654 5652 5651 5650 5649 5647 5645 5643 5641 5637 5634 5631 5628 5624 5620 5615 5610 5605 5599 5592 5584 5577 5571 5564 5556 5549 5542 5535 5528 5518 5508 5498 5486 5472 5457 5445 5428 5407 5392 5380 5370
5647 5645 5644 5642 5641 5640 5638 5636 5634 5632 5630 5626 5623 5620 5616 5612 5606 5601 5594 5588 5581 5574 5568 5561 5553 5545 5537 5529 5522 5515 5507 5499 5490 5480 5468 5455 5441 5425 5410 5393 5376 5361 5352
5635 5633 5632 5631 5630 5628 5627 5625 5623 5620 5617 5614 5611 5607 5601 5596 5590 5585 5579 5572 5565 5558 5550 5542 5534 5525 5517 5509 5502 5493 5485 5476 5467 5457 5446 5434 5421 5407 5391 5373 5358 5348 5338
5625 5623 5622 5620 5619 5618 5616 5614 5610 5607 5603 5600 5596 5591 5586 5581 5575 5568 5562 5555 5548 5541 5532 5523 5515 5507 5498 5489 5481 5473 5462 5452 5442 5432 5420 5408 5394 5381 5367 5354 5343 5331 5323
5614 5613 5611 5610 5608 5605 5602 5599 5595 5592 5589 5585 5581 5576 5570 5565 5558 5551 5544 5537 5530 5522 5514 5506 5498 5489 5480 5472 5463 5452 5440 5428 5417 5406 5395 5382 5369 5357 5344 5330 5324 5314 5306
5602 5600 5598 5596 5593 5590 5587 5583 5579 5575 5572 5568 5563 5558 5552 5546 5539 5532 5525 5518 5512 5504 5495 5487 5478 5469 5461 5452 5441 5430 5418 5405 5394 5381 5369 5357 5346 5336 5325 5314 5305 5298 5291
5589 5587 5584 5581 5578 5574 5571 5567 5563 5558 5553 5549 5544 5539 5533 5527 5520 5514 5506 5499 5492 5483 5474 5466 5458 5449 5440 5430 5420 5410 5398 5385 5373 5360 5347 5335 5326 5318 5310 5299 5291 5284 5281
5574 5572 5569 5565 5562 5558 5554 5550 5545 5540 5534 5530 5524 5518 5512 5506 5499 5493 5486 5478 5470 5461 5453 5445 5437 5429 5419 5409 5399 5388 5377 5364 5352 5340 5329 5317 5308 5301 5292 5285 5279 5274 5272
5558 5555 5551 5548 5545 5541 5536 5532 5527 5522 5517 5511 5504 5498 5491 5483 5477 5471 5465 5456 5447 5438 5430 5423 5414 5405 5395 5386 5375 5365 5354 5341 5331 5320 5309 5299 5291 5284 5278 5272 5267 5265 5265
5542 5536 5533 5530 5526 5522 5517 5512 5507 5502 5496 5489 5483 5476 5470 5462 5454 5447 5441 5434 5426 5418 5409 5399 5390 5381 5372 5361 5350 5340 5329 5320 5310 5301 5292 5283 5275 5268 5264 5261 5258 5257 5258
5522 5519 5516 5512 5508 5503 5498 5492 5486 5481 5475 5469 5463 5456 5449 5442 5434 5426 5419 5412 5404 5395 5386 5376 5367 5357 5346 5336 5326 5317 5308 5298 5290 5282 5273 5266 5259 5254 5251 5249 5248 5249 5250
5505 5501 5496 5491 5487 5482 5478 5472 5466 5459 5453 5447 5440 5434 5428 5421 5414 5405 5397 5389 5380 5371 5361 5351 5341 5330 5320 5312 5303 5295 5287 5278 5270 5263 5255 5248 5243 5240 5239 5237 5237 5240 5243
5486 5483 5477 5472 5467 5462 5457 5450 5443 5437 5431 5425 5419 5413 5406 5398 5390 5383 5375 5366 5356 5345 5335 5325 5314 5305 5297 5288 5281 5274 5267 5258 5250 5243 5237 5232 5228 5226 5225 5225 5227 5230 5233
5468 5463 5458 5452 5447 5441 5435 5430 5424 5417 5411 5404 5397 5390 5382 5375 5367 5358 5349 5339 5328 5318 5307 5297 5288 5281 5272 5264 5257 5251 5246 5238 5231 5224 5219 5216 5213 5212 5212 5213 5215 5218 5223
5448 5443 5438 5432 5427 5422 5416 5410 5404 5398 5391 5383 5375 5367 5358 5349 5339 5329 5319 5310 5300 5289 5280 5271 5264 5257 5251 5243 5236 5229 5223 5217 5212 5206 5203 5202 5200 5200 5200 5202 5204 5208 5213
5429 5424 5419 5414 5408 5402 5396 5389 5382 5375 5367 5359 5350 5340 5330 5320 5310 5300 5290 5281 5272 5263 5255 5246 5240 5234 5228 5220 5213 5207 5201 5197 5193 5191 5190 5188 5188 5188 5190 5191 5193 5197 5203
5410 5405 5399 5393 5387 5380 5373 5366 5358 5350 5341 5332 5322 5311 5301 5291 5282 5272 5263 5254 5245 5237 5230 5222 5215 5210 5204 5198 5193 5187 5184 5181 5179 5178 5178 5177 5177 5177 5178 5180 5183 5187 5193
Wind_Speed
21 21 24 27 29 28 29 33 28 26 22 18 20 22 26 27 29 30 32 34 34 35 37 38 41 45 47 50 52 54 55 56 58 60 64 65 66 67 71 74 77 79 80
25 28 34 29 33 29 44 28 36 28 17 17 22 27 29 30 31 32 34 36 37 38 40 42 45 47 51 54 56 55 57 59 62 64 65 65 68 71 74 78 80 81 84
28 35 36 32 25 24 19 23 13 21 24 27 28 29 30 31 32 34 36 38 40 42 43 46 49 53 55 58 58 60 60 62 65 66 66 68 70 75 78 80 81 84 88
30 29 23 24 22 25 24 24 24 30 30 30 29 30 31 33 36 38 39 40 42 44 48 51 55 57 59 61 63 63 62 65 68 68 69 70 74 76 80 82 84 88 92
29 28 25 24 29 29 27 29 32 34 31 31 30 33 35 37 39 40 41 43 45 48 52 56 58 60 62 64 65 63 66 67 69 69 70 73 75 79 82 84 88 93 94
29 29 27 26 28 28 29 30 33 34 33 33 35 36 38 40 41 42 43 45 49 54 57 60 62 64 65 66 66 65 67 68 69 70 73 76 79 82 84 86 91 95 97
31 33 33 33 32 32 34 35 35 36 35 35 37 39 41 41 42 43 46 50 54 59 60 62 63 64 66 67 68 71 71 71 72 75 77 81 83 87 89 91 95 97 94
32 33 36 36 37 36 36 37 37 38 38 38 39 40 40 42 44 47 51 55 59 62 63 63 64 65 68 70 72 74 73 74 79 81 83 85 88 89 92 95 98 96 91
32 34 35 36 38 39 39 41 41 40 40 41 42 43 44 47 50 53 57 61 63 65 68 67 66 67 70 74 77 79 79 79 83 86 87 89 91 92 95 99 97 93 83
29 29 30 32 36 38 41 41 42 42 43 46 46 47 50 52 55 59 62 64 66 68 67 68 70 70 71 74 78 80 81 81 85 88 90 92 94 96 97 98 94 86 76
31 31 32 34 37 39 41 42 42 44 47 48 49 51 54 56 60 63 66 71 72 70 68 69 72 73 74 77 80 83 84 87 90 94 96 99 99 100 100 94 85 76 68
36 36 36 36 39 40 42 43 45 47 49 51 53 55 58 61 65 71 71 69 68 66 70 74 77 79 79 80 82 85 88 91 95 98 100 100 102 101 93 82 75 67 61
39 40 39 40 41 43 44 46 48 50 53 54 56 60 62 66 71 70 69 70 68 72 76 78 79 81 80 82 85 88 92 95 98 99 100 102 102 96 83 74 67 61 59
41 42 42 43 44 45 48 50 53 56 58 59 61 63 67 71 73 68 66 70 71 76 79 79 80 81 81 83 86 91 95 97 99 100 102 102 96 84 75 69 62 57 55
44 43 44 46 48 49 52 55 59 62 63 65 66 69 71 71 70 66 67 71 75 80 82 81 82 81 82 85 89 93 95 97 99 100 98 93 83 75 69 65 59 52 40
49 49 50 51 52 55 57 60 63 66 68 70 70 68 66 67 70 74 78 82 84 86 86 83 82 82 84 87 91 93 95 98 97 95 90 84 76 69 65 59 53 39 30
48 48 48 52 57 61 64 67 69 67 66 67 67 71 75 76 79 83 85 85 85 84 83 83 82 83 86 90 92 94 96 96 93 87 82 75 71 66 62 53 43 30 25
53 51 49 51 56 58 60 65 67 68 70 74 77 78 79 82 84 85 85 84 82 82 83 84 84 87 90 92 94 94 93 89 85 80 75 71 68 62 54 43 34 25 22
49 57 55 56 53 56 61 65 68 72 75 77 78 79 81 82 83 83 82 81 81 82 83 84 88 91 93 94 94 91 87 84 79 74 69 67 64 54 47 35 28 20 19
56 59 57 56 61 65 68 71 74 77 79 79 78 79 80 80 80 80 81 82 83 84 86 91 93 94 95 93 89 86 83 78 73 70 67 65 59 48 40 32 27 28 27
57 64 73 71 69 71 71 76 78 76 75 74 75 76 77 77 79 81 82 83 86 91 93 94 95 95 92 89 86 81 77 73 70 68 63 59 50 42 34 30 27 28 29
65 70 69 72 69 71 76 75 72 72 72 72 73 75 78 80 81 83 87 90 92 95 96 95 93 91 88 84 80 76 72 70 68 65 60 51 42 37 31 28 29 34 34
69 73 73 72 74 72 70 70 69 70 72 74 76 78 81 84 88 90 93 95 96 95 93 91 89 85 81 79 76 74 70 67 63 59 50 41 36 32 29 28 28 29 34
73 73 71 68 67 68 69 71 73 74 76 78 82 85 88 91 94 96 96 95 93 92 90 86 82 80 79 77 75 72 67 63 57 48 39 35 32 29 27 28 28 31 34
64 65 66 67 69 70 71 73 76 79 82 86 90 93 94 95 95 94 93 92 89 86 84 83 82 80 77 74 71 66 59 53 45 37 33 30 29 27 26 28 29 30 35
65 67 69 71 73 75 78 81 85 88 91 92 92 93 93 93 93 92 89 86 85 84 83 82 80 77 74 69 62 55 48 40 34 31 28 27 25 25 25 27 29 33 39
Wind_Direction
267 275 270 262 261 258 255 280 276 229 233 246 268 275 282 289 285 285 288 291 292 293 293 295 295 298 299 299 299 301 303 305 308 309 308 307 305 305 307 307 306 307 306
263 261 260 259 264 255 257 280 271 247 257 279 285 284 286 282 283 286 289 290 291 294 295 297 298 301 301 300 298 302 307 308 309 309 309 307 307 307 307 307 307 308 309
269 267 263 289 268 272 281 285 256 266 291 293 287 286 283 284 286 289 292 293 294 295 297 296 301 301 300 300 304 306 307 309 308 309 308 307 307 308 309 308 309 309 311
275 275 282 289 289 292 284 288 291 293 286 291 289 287 286 286 289 292 292 291 291 293 296 300 301 302 303 303 304 307 308 308 308 308 307 309 311 309 309 309 308 309 310
275 277 283 285 289 289 291 290 295 292 293 288 285 286 286 288 289 289 289 290 292 296 299 302 302 303 304 304 305 305 308 308 307 307 307 310 309 307 308 309 309 310 310
280 281 281 280 280 283 288 291 286 280 288 290 289 288 287 288 287 286 288 292 296 300 302 303 304 304 303 303 304 304 304 304 305 305 307 308 307 308 309 310 310 311 312
285 284 285 283 282 283 283 280 279 286 287 285 282 283 283 283 286 289 293 297 299 301 302 303 303 302 302 302 302 302 303 304 305 305 307 308 309 309 310 312 313 313 311
287 284 280 278 281 281 277 278 276 278 278 279 282 283 284 287 290 293 295 297 299 300 301 302 302 303 302 301 300 300 302 304 306 308 309 309 310 312 313 314 314 312 308
281 280 281 279 279 279 278 277 280 284 284 285 287 287 288 290 292 295 296 297 299 299 299 302 304 304 303 301 299 300 302 304 306 308 310 310 312 314 314 314 314 310 306
280 279 277 277 276 275 277 280 279 280 282 285 286 287 288 291 292 293 296 299 300 301 301 301 302 302 302 302 302 301 301 303 307 308 309 311 313 314 314 314 312 308 304
278 276 273 272 273 274 276 277 279 280 283 283 283 285 287 289 291 294 297 300 300 300 300 300 301 303 305 305 303 300 300 303 307 309 309 310 312 313 314 313 309 305 302
276 273 272 273 275 275 276 277 277 278 279 280 283 285 287 290 294 296 298 299 297 298 300 300 302 305 306 303 301 299 301 305 307 308 308 310 311 313 314 311 307 304 300
273 273 273 273 273 274 274 275 276 276 277 280 283 285 289 291 296 297 295 297 292 297 300 302 304 305 303 301 299 299 303 305 306 307 309 311 312 314 313 309 307 303 300
273 275 275 276 275 275 275 276 276 278 280 282 284 287 289 290 293 292 292 294 291 296 300 300 301 302 301 300 300 302 304 305 306 308 310 311 314 314 312 309 308 303 301
273 274 276 276 277 276 276 277 279 280 282 283 285 286 289 296 294 291 293 293 294 295 296 296 299 300 300 301 302 303 304 306 308 309 311 313 314 314 312 309 308 305 296
273 275 275 275 276 277 278 280 282 282 283 285 286 291 296 295 295 295 294 293 294 294 296 295 297 298 299 300 302 303 305 306 308 310 311 313 313 312 311 309 307 299 284
275 276 278 280 280 280 280 282 286 287 286 288 294 294 293 291 289 289 291 292 294 295 296 296 296 297 299 301 302 303 304 306 308 310 311 311 311 311 311 308 303 289 271
273 276 282 286 285 284 284 290 294 293 292 288 288 288 289 289 290 291 292 293 293 293 294 295 297 298 300 301 302 303 306 307 309 309 310 309 310 310 308 304 295 280 253
277 274 270 276 281 284 284 282 280 281 283 285 287 287 288 289 289 290 291 291 292 294 295 297 298 300 301 302 303 306 306 307 308 308 308 308 306 306 302 296 281 265 253
274 271 273 278 281 282 283 284 286 286 286 287 286 287 287 288 289 290 291 292 294 295 296 297 298 300 302 303 304 305 306 306 306 306 306 306 304 301 293 284 263 249 249
281 279 286 293 285 284 281 284 286 286 287 287 287 287 287 288 289 290 292 294 295 296 296 298 300 301 302 302 303 303 304 305 304 304 303 302 299 293 284 271 256 241 247
280 284 286 289 287 286 287 286 286 285 286 286 287 288 288 289 291 292 293 294 295 296 298 299 299 300 301 301 302 303 303 303 303 302 300 298 292 284 274 261 249 237 239
282 284 286 286 287 287 285 284 284 284 285 286 288 289 290 291 292 293 294 296 297 298 298 298 299 300 300 300 300 301 301 301 300 298 296 291 284 275 268 256 248 235 238
284 283 284 284 284 284 285 285 286 286 288 289 290 291 292 293 295 297 297 297 297 297 298 299 299 299 299 299 300 300 300 299 297 295 290 283 275 268 259 252 247 235 234
283 284 284 284 285 285 285 286 287 288 289 291 292 294 296 296 296 296 297 297 298 298 297 297 297 298 298 297 298 297 296 294 293 289 283 276 270 264 254 249 246 234 224
283 283 284 285 286 286 287 288 290 292 293 295 296 296 297 297 297 297 297 297 296 296 296 296 295 296 296 296 295 293 292 290 286 282 277 273 268 263 256 245 240 231 223